TimeCST,TemperatureF,Dew PointF,Humidity,Sea Level PressureIn,VisibilityMPH,Wind Direction,Wind SpeedMPH,Gust SpeedMPH,PrecipitationIn,Events,Conditions,WindDirDegrees,DateUTC
12:15 AM,22.6,19.0,86,30.32,10.0,North,11.5,-,N/A,,Overcast,360,2014-03-04 06:15:00
12:35 AM,23.0,19.4,86,30.31,10.0,North,12.7,-,N/A,,Overcast,10,2014-03-04 06:35:00
12:55 AM,23.0,19.9,88,30.30,10.0,North,11.5,-,N/A,,Overcast,10,2014-03-04 06:55:00
1:15 AM,23.0,19.8,87,30.30,10.0,NNE,12.7,-,N/A,,Overcast,20,2014-03-04 07:15:00
1:35 AM,23.0,19.6,87,30.27,10.0,NNE,13.8,-,N/A,,Overcast,30,2014-03-04 07:35:00
1:55 AM,23.0,19.6,87,30.27,10.0,NNE,11.5,-,N/A,,Overcast,30,2014-03-04 07:55:00
2:15 AM,23.0,19.4,86,30.27,10.0,NNE,9.2,-,N/A,,Overcast,30,2014-03-04 08:15:00
2:35 AM,23.0,19.4,86,30.27,10.0,NNE,9.2,-,N/A,,Overcast,30,2014-03-04 08:35:00
2:55 AM,23.0,19.4,86,30.27,10.0,NNE,9.2,-,N/A,,Overcast,30,2014-03-04 08:55:00
3:15 AM,23.0,19.4,86,30.26,10.0,NNE,9.2,-,N/A,,Overcast,30,2014-03-04 09:15:00
3:35 AM,23.0,19.2,85,30.26,10.0,NNE,9.2,-,N/A,,Overcast,30,2014-03-04 09:35:00
3:55 AM,23.0,19.0,85,30.27,10.0,NNE,8.1,-,N/A,,Overcast,20,2014-03-04 09:55:00
4:15 AM,22.8,18.7,84,30.25,10.0,NE,5.8,-,N/A,,Overcast,40,2014-03-04 10:15:00
4:35 AM,23.0,19.0,85,30.25,10.0,NNE,6.9,-,N/A,,Overcast,30,2014-03-04 10:35:00
4:55 AM,22.8,18.7,84,30.24,10.0,ENE,5.8,-,N/A,,Overcast,60,2014-03-04 10:55:00
5:15 AM,23.0,19.4,86,30.23,10.0,ENE,6.9,-,N/A,,Overcast,60,2014-03-04 11:15:00
5:35 AM,23.0,19.2,85,30.24,10.0,ENE,6.9,-,N/A,,Overcast,60,2014-03-04 11:35:00
5:55 AM,23.4,19.6,85,30.23,10.0,NE,6.9,-,N/A,,Overcast,40,2014-03-04 11:55:00
6:15 AM,23.4,19.4,85,30.25,10.0,NNE,5.8,-,N/A,,Overcast,30,2014-03-04 12:15:00
6:35 AM,23.5,19.6,85,30.24,10.0,NNE,6.9,-,N/A,,Overcast,30,2014-03-04 12:35:00
6:55 AM,23.7,19.9,85,30.25,10.0,NNE,8.1,-,N/A,,Overcast,20,2014-03-04 12:55:00
7:15 AM,23.9,20.1,85,30.25,10.0,NE,6.9,-,N/A,,Overcast,40,2014-03-04 13:15:00
7:35 AM,24.1,20.5,86,30.25,10.0,North,6.9,-,N/A,,Overcast,10,2014-03-04 13:35:00
7:55 AM,24.3,20.3,85,30.27,10.0,NNE,5.8,-,N/A,,Overcast,20,2014-03-04 13:55:00
8:15 AM,24.6,20.5,84,30.27,10.0,NNE,6.9,-,N/A,,Overcast,30,2014-03-04 14:15:00
8:35 AM,25.0,21.0,85,30.27,10.0,NNE,5.8,-,N/A,,Overcast,30,2014-03-04 14:35:00
8:55 AM,25.3,21.0,84,30.28,10.0,NNE,5.8,-,N/A,,Overcast,20,2014-03-04 14:55:00
9:15 AM,25.7,21.4,84,30.27,10.0,North,5.8,-,N/A,,Overcast,10,2014-03-04 15:15:00
9:35 AM,26.2,21.6,82,30.27,10.0,NNE,8.1,-,N/A,,Overcast,30,2014-03-04 15:35:00
9:55 AM,26.4,21.7,82,30.26,10.0,NNE,5.8,-,N/A,,Overcast,20,2014-03-04 15:55:00
10:15 AM,26.8,22.1,83,30.27,10.0,NNE,3.5,-,N/A,,Overcast,20,2014-03-04 16:15:00
10:35 AM,26.8,22.3,83,30.26,10.0,North,6.9,-,N/A,,Overcast,10,2014-03-04 16:35:00
10:55 AM,27.1,22.8,84,30.26,10.0,North,5.8,-,N/A,,Overcast,360,2014-03-04 16:55:00
11:15 AM,27.3,22.6,83,30.27,10.0,North,5.8,-,N/A,,Overcast,350,2014-03-04 17:15:00
11:35 AM,27.5,22.8,83,30.27,10.0,NNW,4.6,-,N/A,,Overcast,340,2014-03-04 17:35:00
11:55 AM,28.2,23.2,81,30.26,10.0,North,4.6,-,N/A,,Overcast,350,2014-03-04 17:55:00
12:15 PM,28.2,23.4,82,30.25,10.0,NNW,3.5,-,N/A,,Overcast,340,2014-03-04 18:15:00
12:35 PM,28.2,22.8,80,30.24,10.0,North,4.6,-,N/A,,Overcast,350,2014-03-04 18:35:00
12:55 PM,28.4,23.5,82,30.23,10.0,North,4.6,-,N/A,,Overcast,350,2014-03-04 18:55:00
1:15 PM,28.8,23.4,80,30.22,10.0,North,3.5,-,N/A,,Overcast,10,2014-03-04 19:15:00
1:35 PM,29.1,24.1,81,30.22,10.0,Calm,Calm,-,N/A,,Overcast,0,2014-03-04 19:35:00
1:55 PM,29.3,23.9,80,30.21,10.0,Calm,Calm,-,N/A,,Overcast,0,2014-03-04 19:55:00
2:15 PM,29.3,23.9,80,30.21,10.0,Calm,Calm,-,N/A,,Overcast,0,2014-03-04 20:15:00
2:35 PM,29.8,24.6,81,30.19,10.0,North,3.5,-,N/A,,Overcast,350,2014-03-04 20:35:00
2:55 PM,30.4,24.6,79,30.18,10.0,NE,3.5,-,N/A,,Overcast,40,2014-03-04 20:55:00
3:15 PM,30.6,24.8,79,30.17,10.0,NNE,5.8,-,N/A,,Mostly Cloudy,30,2014-03-04 21:15:00
3:35 PM,30.7,25.3,80,30.18,10.0,NNE,3.5,-,N/A,,Mostly Cloudy,20,2014-03-04 21:35:00
3:55 PM,30.7,25.9,82,30.16,10.0,NNE,8.1,-,N/A,,Scattered Clouds,30,2014-03-04 21:55:00
4:15 PM,30.9,25.9,82,30.17,10.0,NNE,6.9,-,N/A,,Scattered Clouds,20,2014-03-04 22:15:00
4:35 PM,31.1,26.4,83,30.16,10.0,NNE,8.1,-,N/A,,Scattered Clouds,30,2014-03-04 22:35:00
4:55 PM,32.0,26.6,80,30.16,10.0,North,6.9,-,N/A,,Clear,10,2014-03-04 22:55:00
5:15 PM,31.5,26.4,82,30.16,10.0,NE,6.9,-,N/A,,Clear,40,2014-03-04 23:15:00
5:35 PM,30.9,26.1,82,30.16,10.0,NNE,5.8,-,N/A,,Clear,20,2014-03-04 23:35:00
5:55 PM,30.2,26.2,85,30.16,10.0,NNE,4.6,-,N/A,,Clear,20,2014-03-04 23:55:00
6:15 PM,30.2,26.4,86,30.16,10.0,NNE,4.6,-,N/A,,Clear,30,2014-03-05 00:15:00
6:35 PM,30.2,27.3,89,30.16,10.0,NNE,4.6,-,N/A,,Clear,20,2014-03-05 00:35:00
6:55 PM,30.2,27.5,90,30.16,10.0,Calm,Calm,-,N/A,,Clear,0,2014-03-05 00:55:00
7:15 PM,30.2,27.3,89,30.16,10.0,NNE,3.5,-,N/A,,Clear,20,2014-03-05 01:15:00
7:35 PM,30.6,27.7,89,30.17,10.0,North,3.5,-,N/A,,Clear,350,2014-03-05 01:35:00
7:55 PM,30.6,27.5,88,30.18,10.0,Calm,Calm,-,N/A,,Clear,0,2014-03-05 01:55:00
8:15 PM,30.6,27.3,88,30.18,10.0,Calm,Calm,-,N/A,,Clear,0,2014-03-05 02:15:00
8:35 PM,30.2,27.7,90,30.20,10.0,NNW,4.6,-,N/A,,Clear,340,2014-03-05 02:35:00
8:55 PM,30.2,27.9,91,30.20,10.0,North,4.6,-,N/A,,Clear,360,2014-03-05 02:55:00
9:15 PM,29.8,28.0,93,30.18,10.0,North,5.8,-,N/A,,Clear,10,2014-03-05 03:15:00
9:35 PM,29.3,27.1,92,30.17,10.0,NE,6.9,-,N/A,,Clear,40,2014-03-05 03:35:00
9:55 PM,28.9,27.0,92,30.17,10.0,NNE,6.9,-,N/A,,Clear,20,2014-03-05 03:55:00
10:15 PM,29.3,27.9,94,30.17,10.0,North,6.9,-,N/A,,Clear,360,2014-03-05 04:15:00
10:35 PM,28.9,27.3,94,30.17,10.0,North,6.9,-,N/A,,Clear,10,2014-03-05 04:35:00
10:55 PM,28.2,26.6,94,30.17,10.0,NE,4.6,-,N/A,,Clear,40,2014-03-05 04:55:00
11:15 PM,27.9,26.4,94,30.16,10.0,Calm,Calm,-,N/A,,Clear,0,2014-03-05 05:15:00
11:35 PM,27.5,26.4,96,30.16,10.0,NNE,3.5,-,N/A,,Clear,20,2014-03-05 05:35:00
11:55 PM,27.5,26.6,96,30.15,10.0,Calm,Calm,-,N/A,,Clear,0,2014-03-05 05:55:00